カタログに戻る

KUIPER-00410

運用中通信LEO
NORAD 68926·PAYLOAD·🇺🇸 United States

打ち上げ Apr 30, 2026 から Guiana Space Centre

Loading…

次のパス (今後24時間)

TLE

最新Source: CelesTrak SupGP

元期: Sep 14, 2026, 21:38 UTC

1 68926C 26098H   26257.90149306  .00004760  00000+0  62296-3 0  2571
2 68926  51.8982  18.9305 0001202 138.5412 211.3636 14.79934340    18

AllMySatでKUIPER-00410をリアルタイム追跡

Download on the App Store